Retour au catalogue

STARLINK-35589

ActifCommunicationsVLEO
NORAD 66426·PAYLOAD·🇺🇸 United States

Lancé Nov 11, 2025 depuis Cape Canaveral Space Force Station

Loading…

Prochains Passages (prochaines 24 heures)

TLE

FraisSource: CelesTrak SupGP

Époque: Sep 14, 2026, 21:15 UTC

1 66426C 25259E   26257.88590278  .00004490  00000+0  16265-3 0  2572
2 66426  43.0032 285.8862 0001577 266.6708 185.6790 15.27573590    13

Suivez STARLINK-35589 en temps réel avec AllMySat

Download on the App Store